Flag for Austria Weather past 2 weeks in Traun, Upper Austria, Austria

Now
45 °F

Partly sunny.


Feels Like: 39 °F
Forecast: 25 / 53 °F
Wind: 10 mph from West

Location: Linz / Hoersching-Flughafen


UV Index: 3 (Moderate)

Visibility: N/A


Pressure: 30.33 "Hg

Humidity: 76%

Dew point: 37 °F

Location of TraunLocation

Historic Weather in Traun

°F

Traun temperature yesterday

Maximum temperature yesterday: 45 °F (at 4:20 PM)
Minimum temperature yesterday: 36 °F (at 5:50 AM)
Average temperature yesterday: 41 °F

Past Weeks' High & Low Weather Summary

 TemperatureHumidityPressure
High72 °F (Apr 3, 2:50 PM)100% (Apr 3, 6:20 AM)30.33 "Hg (Apr 3, 6:20 AM)
Low36 °F (Apr 15, 5:50 AM)23% (Apr 1, 5:20 PM)29.68 "Hg (Apr 3, 3:20 PM)
Average52 °F72%29.99 "Hg
* Reported Apr 1 11:20 AM — Apr 16 11:20 AM, Traun, Weather by CustomWeather, © 2014

Note: Actual official high and low records may vary slightly from our data, if they occured in-between our weather recording intervals... More about our weather records

Advertising

Historic Weather Conditions — Data for Previous 24 hours

 ConditionsComfort  
Time TempWeatherWind HumidityBarometerVisibility
11:20 AM
Apr 16
43 °FBroken clouds.10 mph76%30.33 "HgN/A
10:50 AM41 °FBroken clouds.13 mph81%30.33 "HgN/A
10:20 AM41 °FPartly sunny.9 mph81%30.33 "HgN/A
9:50 AM39 °FPartly sunny.9 mph81%30.33 "HgN/A
9:20 AM39 °FBroken clouds.10 mph81%30.33 "HgN/A
8:50 AM39 °FPartly sunny.10 mph81%30.30 "HgN/A
8:20 AM39 °FPartly sunny.10 mph81%30.30 "HgN/A
7:50 AM39 °FBroken clouds.12 mph81%30.30 "HgN/A
7:20 AM39 °FBroken clouds.10 mph75%30.30 "HgN/A
6:50 AM39 °FPartly cloudy.12 mph75%30.27 "HgN/A
6:20 AM39 °FPartly cloudy.9 mph75%30.27 "HgN/A
5:50 AM39 °FPartly cloudy.7 mph75%30.27 "HgN/A
5:20 AM39 °FPartly cloudy.9 mph75%30.27 "HgN/A
4:50 AM39 °FPassing clouds.10 mph75%30.27 "HgN/A
4:20 AM37 °FPassing clouds.8 mph81%30.24 "HgN/A
3:50 AM37 °FPartly cloudy.9 mph81%30.24 "HgN/A
3:20 AM39 °FOvercast.10 mph75%30.24 "HgN/A
2:50 AM37 °FOvercast.8 mph81%30.24 "HgN/A
1:20 AM39 °FPassing clouds.9 mph75%30.24 "HgN/A
12:50 AM41 °FPassing clouds.10 mph70%30.21 "HgN/A
11:50 PM
Apr 15
41 °FSprinkles. Partly cloudy.7 mph76%30.21 "HgN/A
11:20 PM41 °FPassing clouds.9 mph76%30.21 "HgN/A
10:50 PM41 °FPartly cloudy.9 mph76%30.21 "HgN/A
10:20 PM41 °FPartly cloudy.8 mph81%30.21 "HgN/A
9:50 PM41 °FPartly cloudy.3 mph81%30.21 "HgN/A
9:20 PM41 °FPassing clouds.7 mph81%30.21 "HgN/A
8:50 PM43 °FBroken clouds.12 mph71%30.18 "HgN/A
8:20 PM43 °FBroken clouds.15 mph71%30.18 "HgN/A
7:50 PM43 °FBroken clouds.15 mph71%30.15 "HgN/A
7:20 PM43 °FSprinkles. Partly sunny.18 mph76%30.15 "HgN/A
6:50 PM43 °FPartly sunny.16 mph76%30.15 "HgN/A
6:20 PM45 °FPartly sunny.18 mph71%30.15 "HgN/A
5:50 PM45 °FPartly sunny.18 mph71%30.15 "HgN/A
5:20 PM45 °FPartly sunny.17 mph76%30.15 "HgN/A
4:50 PM45 °FBroken clouds.18 mph71%30.15 "HgN/A
4:20 PM45 °FBroken clouds.16 mph71%30.15 "HgN/A
3:50 PM43 °FBroken clouds.18 mph76%30.15 "HgN/A
3:20 PM43 °FSprinkles. Partly sunny.20 mph76%30.15 "HgN/A
2:50 PM43 °FSprinkles. Broken clouds.16 mph76%30.15 "HgN/A
2:20 PM43 °FSprinkles. Broken clouds.20 mph76%30.15 "HgN/A
1:50 PM41 °FSprinkles. Partly sunny.18 mph81%30.15 "HgN/A
1:20 PM41 °FSprinkles. Partly sunny.18 mph81%30.15 "HgN/A
12:50 PM41 °FSprinkles. Broken clouds.18 mph76%30.15 "HgN/A
12:20 PM41 °FSprinkles. Broken clouds.17 mph81%30.15 "HgN/A
Weather by CustomWeather, © 2014

See weather overview